Date,TemperatureHighF,TemperatureAvgF,TemperatureLowF,DewpointHighF,DewpointAvgF,DewpointLowF,HumidityHigh,HumidityAvg,HumidityLow,PressureMaxIn,PressureMinIn,WindSpeedMaxMPH,WindSpeedAvgMPH,GustSpeedMaxMPH,PrecipitationSumIn
2013-3-1,42,33,29,36,29,25,93,86,76,0.00,40.00,13,6,15,0.00
2013-3-2,45,35,28,36,31,26,95,85,67,0.00,40.00,15,8,17,0.00
2013-3-3,45,38,28,38,30,17,90,72,50,0.00,40.00,28,15,42,0.00
2013-3-4,34,29,24,23,18,12,80,63,41,0.00,40.00,11,6,14,0.00
2013-3-5,40,30,21,27,21,14,84,67,51,0.00,40.00,17,11,19,0.00
2013-3-6,51,35,29,35,28,22,92,73,49,0.00,40.00,28,12,35,0.00
2013-3-7,41,34,29,29,26,23,86,71,51,0.00,40.00,15,8,19,0.00
2013-3-8,42,34,30,35,31,27,94,85,71,0.00,40.00,13,8,15,0.00
2013-3-9,45,35,25,27,24,21,91,68,39,0.00,40.00,19,7,23,0.00
2013-3-10,47,37,27,30,24,19,85,63,39,0.00,40.00,17,10,24,0.00
2013-3-11,53,42,33,35,28,21,71,57,44,0.00,40.00,25,14,32,0.00
2013-3-12,54,40,30,38,32,27,89,72,46,0.00,40.00,14,8,19,0.00
2013-3-13,61,43,28,40,33,26,91,71,36,0.00,40.00,17,7,22,0.00
2013-3-14,63,44,29,43,34,27,92,71,40,0.00,40.00,12,6,14,0.00
2013-3-15,62,50,36,36,31,26,78,51,26,0.00,40.00,20,13,29,0.00
2013-3-16,56,44,33,36,27,20,80,53,25,0.00,40.00,23,12,29,0.00
2013-3-17,44,37,30,36,16,4,84,46,21,0.00,40.00,36,24,48,0.00
2013-3-18,44,34,22,17,14,9,73,46,29,0.00,40.00,35,17,46,0.00
2013-3-19,49,35,18,22,15,4,82,48,15,0.00,40.00,19,6,26,0.00
2013-3-20,50,39,29,44,32,16,94,76,55,0.00,40.00,30,10,40,0.00
2013-3-21,43,34,28,38,22,13,85,63,40,0.00,40.00,35,22,43,0.00
2013-3-22,30,26,24,24,20,16,90,77,62,0.00,40.00,18,9,24,0.00
2013-3-23,34,25,16,24,18,9,92,77,35,0.00,40.00,14,8,18,0.00
2013-3-24,35,26,18,21,16,6,91,68,29,0.00,40.00,11,6,14,0.00
2013-3-25,44,30,16,27,18,12,87,62,34,0.00,40.00,11,7,14,0.00
2013-3-26,44,36,30,34,28,22,88,71,53,0.00,40.00,16,8,21,0.00
2013-3-27,57,41,30,36,32,28,93,73,40,0.00,40.00,11,6,17,0.00
2013-3-28,62,45,29,37,32,26,91,64,28,0.00,40.00,19,8,23,0.00
2013-3-29,63,51,39,37,34,29,77,53,28,0.00,40.00,19,12,30,0.00
2013-3-30,60,47,28,35,29,-100,87,54,28,0.00,40.00,14,7,19,0.00
2013-3-31,67,45,25,32,25,17,86,52,15,0.00,40.00,12,6,17,0.00